Hillsdale, MI

1:16 AM EDT on August 26, 2016 (GMT -0400)
Hillsdale Municipal

Weather History for KJYM - December, 2012

Change the Weather History Date:

Wednesday, December 12, 2012

  Actual Average Record
Temperature  
Mean Temperature 32 °F -  
Max Temperature 41 °F 36 °F 62 °F (2015)
Min Temperature 24 °F 21 °F -11 °F (1962)
Degree Days  
Heating Degree Days 32    
Moisture  
Dew Point 24 °F    
Average Humidity 73    
Maximum Humidity 91    
Minimum Humidity 49    
Precipitation  
Precipitation 0.00 in - - ()
Sea Level Pressure  
Sea Level Pressure 30.27 in    
Wind  
Wind Speed 6 mph (SSW)    
Max Wind Speed 13 mph    
Max Gust Speed -    
Visibility 10 miles    
Events      
Averages and records for this station are not official NWS values.
T = Trace of Precipitation, MM = Missing Value Source: NWS Daily Summary

Daily Weather History Graph

Daily Weather History Graph

Search for Another Location

Airport or City:

Trip Planner

Search our weather history database for the weather conditions in past years. The results will help you decide how hot, cold, wet, or windy it might be!

Date:

Astronomy

Dec. 12, 2012 Rise Set
Actual Time 7:57 AM EST 5:07 PM EST
Civil Twilight 7:25 AM EST 5:39 PM EST
Nautical Twilight 6:50 AM EST 6:14 PM EST
Astronomical Twilight 6:16 AM EST 6:48 PM EST
Moon 7:00 AM EST (12/12) 4:43 PM EST (12/12)
Length of Visible Light 10h 13m
Length of Day
9h 10m
Waning Crescent, 1% of the Moon is Illuminated
Dec 12
Waning Crescent
Dec 13
New
Dec 20
First Quarter
Dec 28
Full
Jan 4
Last Quarter

Hourly Weather History & Observations

Time (EST) Temp. Windchill Dew Point Humidity Pressure Visibility Wind Dir Wind Speed Gust Speed Precip Events Conditions
12:14 AM 27.7 °F 21.3 °F 22.6 °F 81% 30.14 in 10.0 mi SSW 5.8 mph - N/A   Clear
12:35 AM 27.0 °F 20.5 °F 22.5 °F 83% 30.14 in 10.0 mi SSW 5.8 mph - N/A   Clear
12:55 AM 27.0 °F 19.5 °F 22.8 °F 84% 30.14 in 10.0 mi SSW 6.9 mph - N/A   Clear
1:14 AM 26.6 °F 19.1 °F 22.6 °F 85% 30.14 in 10.0 mi SSW 6.9 mph - N/A   Clear
1:34 AM 26.1 °F 19.4 °F 22.6 °F 87% 30.15 in 10.0 mi SSW 5.8 mph - N/A   Clear
1:54 AM 25.9 °F 19.2 °F 22.6 °F 88% 30.15 in 10.0 mi South 5.8 mph - N/A   Clear
2:15 AM 24.3 °F 17.3 °F 21.9 °F 91% 30.16 in 10.0 mi South 5.8 mph - N/A   Clear
2:35 AM 24.8 °F 19.1 °F 22.6 °F 91% 30.17 in 10.0 mi SSW 4.6 mph - N/A   Clear
2:54 AM 25.2 °F 20.9 °F 22.6 °F 90% 30.18 in 10.0 mi SSW 3.5 mph - N/A   Clear
3:15 AM 25.0 °F 19.3 °F 22.6 °F 91% 30.19 in 10.0 mi SSW 4.6 mph - N/A   Clear
3:34 AM 25.0 °F 18.1 °F 22.6 °F 91% 30.19 in 10.0 mi SSW 5.8 mph - N/A   Clear
3:54 AM 25.2 °F 19.5 °F 22.8 °F 91% 30.19 in 10.0 mi SSW 4.6 mph - N/A   Clear
4:15 AM 25.2 °F 19.5 °F 22.8 °F 91% 30.19 in 10.0 mi SSW 4.6 mph - N/A   Clear
4:34 AM 25.2 °F 19.5 °F 22.6 °F 90% 30.19 in 10.0 mi SSW 4.6 mph - N/A   Clear
4:55 AM 25.3 °F 19.7 °F 23.0 °F 91% 30.20 in 10.0 mi SW 4.6 mph - N/A   Clear
5:14 AM 25.5 °F 19.9 °F 22.8 °F 89% 30.20 in 10.0 mi SW 4.6 mph - N/A   Clear
5:34 AM 25.9 °F 19.2 °F 22.8 °F 88% 30.21 in 10.0 mi SW 5.8 mph - N/A   Clear
5:55 AM 25.9 °F 20.3 °F 22.8 °F 88% 30.21 in 10.0 mi South 4.6 mph - N/A   Clear
6:14 AM 24.6 °F 18.8 °F 22.3 °F 91% 30.22 in 10.0 mi South 4.6 mph - N/A   Clear
6:34 AM 24.6 °F 17.7 °F 22.5 °F 91% 30.22 in 10.0 mi SSW 5.8 mph - N/A   Clear
6:54 AM 25.2 °F - 22.5 °F 89% 30.23 in 10.0 mi Calm Calm - N/A   Clear
7:14 AM 24.8 °F 17.9 °F 22.3 °F 90% 30.24 in 10.0 mi SSW 5.8 mph - N/A   Clear
7:34 AM 25.2 °F 17.3 °F 22.5 °F 89% 30.24 in 10.0 mi SSW 6.9 mph - N/A   Clear
7:54 AM 25.2 °F 17.3 °F 22.5 °F 89% 30.25 in 10.0 mi SSW 6.9 mph - N/A   Clear
8:15 AM 25.2 °F 17.3 °F 22.5 °F 89% 30.25 in 7.0 mi SSW 6.9 mph - N/A   Clear
8:35 AM 25.9 °F 17.4 °F 22.8 °F 88% 30.26 in 7.0 mi SSW 8.1 mph - N/A   Clear
8:54 AM 26.6 °F 19.1 °F 23.2 °F 87% 30.27 in 10.0 mi SSW 6.9 mph - N/A   Clear
9:15 AM 28.0 °F 21.7 °F 23.7 °F 84% 30.27 in 10.0 mi SSW 5.8 mph - N/A   Clear
9:34 AM 29.7 °F 23.7 °F 24.1 °F 80% 30.29 in 10.0 mi SW 5.8 mph - N/A   Clear
9:55 AM 30.7 °F 24.1 °F 24.3 °F 77% 30.29 in 10.0 mi SW 6.9 mph - N/A   Clear
10:15 AM 31.8 °F 25.4 °F 24.6 °F 75% 30.30 in 10.0 mi SSW 6.9 mph - N/A   Clear
10:34 AM 33.3 °F 27.9 °F 25.2 °F 72% 30.31 in 10.0 mi SW 5.8 mph - N/A   Clear
10:55 AM 35.1 °F 29.3 °F 25.5 °F 68% 30.31 in 10.0 mi WSW 6.9 mph - N/A   Clear
11:14 AM 37.0 °F 33.3 °F 24.8 °F 61% 30.32 in 10.0 mi WSW 4.6 mph - N/A   Clear
11:35 AM 37.8 °F 30.7 °F 23.9 °F 57% 30.32 in 10.0 mi SW 10.4 mph - N/A   Clear
11:55 AM 38.5 °F 32.1 °F 24.8 °F 58% 30.32 in 10.0 mi SW 9.2 mph - N/A   Clear
12:14 PM 38.8 °F 32.6 °F 24.1 °F 55% 30.31 in 10.0 mi SW 9.2 mph - N/A   Clear
12:35 PM 39.6 °F 34.7 °F 23.9 °F 54% 30.31 in 10.0 mi SW 6.9 mph - N/A   Clear
12:54 PM 40.3 °F 33.0 °F 22.3 °F 49% 30.31 in 10.0 mi WSW 12.7 mph - N/A   Clear
1:14 PM 40.6 °F 34.8 °F 23.5 °F 51% 30.31 in 10.0 mi WSW 9.2 mph - N/A   Clear
1:35 PM 41.2 °F 36.0 °F 24.3 °F 51% 30.31 in 10.0 mi SSW 8.1 mph - N/A   Clear
1:54 PM 41.7 °F 37.3 °F 24.3 °F 50% 30.30 in 10.0 mi SW 6.9 mph - N/A   Clear
2:15 PM 41.5 °F 35.9 °F 23.4 °F 49% 30.30 in 10.0 mi WSW 9.2 mph - N/A   Clear
2:35 PM 41.5 °F 35.9 °F 23.4 °F 49% 30.30 in 10.0 mi SSW 9.2 mph - N/A   Clear
2:54 PM 41.4 °F 36.2 °F 23.5 °F 49% 30.30 in 10.0 mi SW 8.1 mph - N/A   Clear
3:15 PM 41.4 °F 38.4 °F 23.7 °F 50% 30.29 in 10.0 mi SSW 4.6 mph - N/A   Clear
3:34 PM 41.2 °F 36.6 °F 23.9 °F 50% 30.29 in 10.0 mi South 6.9 mph - N/A   Clear
3:55 PM 40.6 °F 36.0 °F 23.5 °F 51% 30.29 in 10.0 mi South 6.9 mph - N/A   Clear
4:14 PM 40.3 °F 34.9 °F 22.8 °F 50% 30.30 in 10.0 mi SSW 8.1 mph - N/A   Clear
4:35 PM 39.7 °F 35.6 °F 23.7 °F 53% 30.30 in 10.0 mi SSW 5.8 mph - N/A   Clear
4:54 PM 38.5 °F 35.0 °F 24.3 °F 57% 30.30 in 10.0 mi South 4.6 mph - N/A   Clear
5:15 PM 37.0 °F 34.5 °F 24.1 °F 59% 30.30 in 10.0 mi South 3.5 mph - N/A   Clear
5:35 PM 36.5 °F - 23.5 °F 59% 30.31 in 10.0 mi Calm Calm - N/A   Clear
5:54 PM 36.0 °F - 23.5 °F 61% 30.31 in 10.0 mi Calm Calm - N/A   Clear
6:15 PM 35.2 °F 32.4 °F 23.4 °F 62% 30.31 in 10.0 mi South 3.5 mph - N/A   Clear
6:35 PM 34.5 °F - 23.4 °F 64% 30.32 in 10.0 mi Calm Calm - N/A   Clear
7:15 PM 33.1 °F 30.0 °F 23.5 °F 68% 30.32 in 10.0 mi South 3.5 mph - N/A   Clear
7:35 PM 33.3 °F 28.9 °F 24.3 °F 70% 30.32 in 10.0 mi SSE 4.6 mph - N/A   Clear
7:54 PM 32.5 °F 28.1 °F 24.1 °F 71% 30.32 in 10.0 mi South 4.6 mph - N/A   Clear
8:15 PM 32.4 °F 26.9 °F 24.3 °F 72% 30.33 in 10.0 mi South 5.8 mph - N/A   Clear
8:35 PM 32.4 °F 26.9 °F 24.4 °F 73% 30.33 in 10.0 mi South 5.8 mph - N/A   Clear
8:55 PM 32.0 °F 26.4 °F 24.4 °F 74% 30.33 in 10.0 mi South 5.8 mph - N/A   Clear
9:15 PM 31.8 °F 26.2 °F 24.4 °F 74% 30.33 in 10.0 mi South 5.8 mph - N/A   Clear
9:34 PM 32.0 °F 27.5 °F 24.4 °F 74% 30.33 in 10.0 mi South 4.6 mph - N/A   Clear
9:55 PM 31.8 °F 26.2 °F 24.4 °F 74% 30.34 in 10.0 mi South 5.8 mph - N/A   Clear
10:15 PM 31.6 °F 26.0 °F 24.3 °F 74% 30.34 in 10.0 mi South 5.8 mph - N/A   Clear
10:34 PM 31.5 °F 25.8 °F 24.4 °F 75% 30.33 in 10.0 mi South 5.8 mph - N/A   Clear
10:55 PM 31.5 °F 25.8 °F 24.8 °F 76% 30.33 in 10.0 mi South 5.8 mph - N/A   Clear
11:15 PM 31.3 °F 24.7 °F 24.8 °F 77% 30.34 in 10.0 mi South 6.9 mph - N/A   Clear
11:34 PM 31.5 °F 24.9 °F 24.8 °F 76% 30.33 in 10.0 mi South 6.9 mph - N/A   Clear
11:55 PM 31.6 °F 24.4 °F 25.0 °F 76% 30.33 in 10.0 mi South 8.1 mph - N/A   Clear